FW7601 Weather Reports


time (UTC)temp
F
wind
direction
speed
knots
gust
knots
rain 1hr
in
rain 24hr
in
rain mn
in
humidity
%
barometer
mb
20260508151922 57 0 0.9 1.7 0.00 0.00 0.00 40 1010.4
20260508150922 57 225 3.5 7.8 0.00 0.00 0.00 40 1010.7
20260508145922 56 0.0 0.0 0.00 0.00 0.00 41 1010.7
20260508145032 55 158 2.6 3.5 0.00 0.00 0.00 40 1010.6
20260508143922 55 203 1.7 2.6 0.00 0.00 0.00 43 1010.8
20260508142922 54 0.0 1.7 0.00 0.00 0.00 48 1010.7
20260508141920 54 203 0.9 2.6 0.00 0.00 0.00 52 1010.9
20260508140922 53 0.0 0.0 0.00 0.00 0.00 54 1010.9
20260508135921 52 225 0.9 2.6 0.00 0.00 0.00 59 1010.9
20260508134923 51 0.0 0.0 0.00 0.00 0.00 63 1011.0
20260508133922 50 0.0 0.0 0.00 0.00 0.00 66 1011.0
20260508132922 50 0.0 0.9 0.00 0.00 0.00 68 1011.0
20260508131922 49 0.0 0.0 0.00 0.00 0.00 68 1011.2
20260508130922 48 0.0 0.0 0.00 0.00 0.00 68 1011.3
20260508125921 47 0.0 0.0 0.00 0.00 0.00 70 1011.4
20260508124921 45 158 0.9 2.6 0.00 0.00 0.00 71 1011.2
20260508123922 44 0.0 1.7 0.00 0.00 0.00 73 1011.3
20260508122956 43 158 0.9 2.6 0.00 0.00 0.00 76 1011.2
20260508121922 42 158 0.9 2.6 0.00 0.00 0.00 80 1011.1
20260508120921 40 0.0 0.0 0.00 0.00 0.00 91 1011.0
20260508120815 37 0.0 0.0 0.00 0.00 0.00 92 1010.7